[[{"header":{"parameterUnit":"m.s-1","parameterCategory":1,"la1":30.2991,"la2":30.254,"lo1":-89.0895,"lo2":-89.0444,"dy":0.0017,"dx":0.0017,"nx":28,"ny":28,"refTime":"2023-10-12T03:00:00:Z","depth":0,"parameterNumber":2,"parameterNumberName":"U-component_of_WINDS"},"data":[0,0,0,0,0,0,0,0,0,0,0,0,0,0,0,0,0,0,0,0,0,0,0,0,0,0,0,0,0,0,0,0,0,0,0,0,0,0,0,0,0,0,0,0,0,0,0,0,0,0,0,0,0,0,0,0,0,0,-0.3775,-0.3774,0,-0.3713,-0.3712,-0.3712,-0.371,-0.371,-0.3711,-0.3712,-0.3645,-0.3643,-0.364,0,0,0,0,0,0,0,0,0,0,0,0,0,-0.3888,-0.3886,-0.3775,-0.3774,-0.3773,-0.3713,-0.3712,-0.3711,-0.3709,-0.371,-0.3711,-0.3712,-0.3646,-0.3643,-0.364,0,0,0,0,0,0,0,0,0,0,0,0,0,-0.3834,-0.3886,-0.3775,-0.3765,-0.3764,-0.3713,-0.3712,-0.3711,-0.3709,-0.371,-0.3712,-0.3713,-0.3647,-0.3643,-0.364,-0.3594,0,0,-0.3628,-0.3627,0,0,0,0,0,0,0,0,-0.3837,-0.383,-0.3767,-0.3766,-0.3764,-0.372,-0.3728,-0.3672,-0.3709,-0.373,-0.3712,-0.3713,-0.3669,-0.3664,-0.3649,-0.3591,-0.3588,-0.3628,-0.3626,-0.3624,-0.3623,0,0,0,0,0,0,0,-0.3841,-0.3832,-0.375,-0.3766,-0.3764,-0.3763,-0.3756,-0.3717,-0.3694,-0.3728,-0.3728,-0.3721,-0.3668,-0.3653,-0.3648,-0.3587,-0.3628,-0.3625,-0.3623,-0.3621,-0.3488,-0.3486,0,0,0,0,0,0,-0.3847,-0.3836,-0.3752,-0.3748,-0.3804,-0.376,-0.3753,-0.3733,-0.3694,-0.3689,-0.372,-0.3721,-0.3659,-0.3652,-0.3645,-0.3589,-0.3624,-0.3621,-0.3619,-0.3489,-0.3487,-0.3486,0,0,0,0,0,0,-0.3849,-0.384,-0.3755,-0.3792,-0.3781,-0.3757,-0.3735,-0.3731,-0.3716,-0.3688,-0.3683,-0.3709,-0.3659,-0.3651,-0.3607,-0.3587,-0.3619,-0.3616,-0.3491,-0.3489,-0.3487,-0.3477,0,0,0,0,0,0,-0.3853,-0.3841,-0.3824,-0.3792,-0.3779,-0.3718,-0.3734,-0.3729,-0.371,-0.3711,-0.3676,-0.3672,-0.366,-0.3613,-0.3603,-0.3583,-0.3613,-0.3492,-0.349,-0.3487,-0.3479,-0.3475,-0.3472,0,0,0,0,0,-0.3857,-0.3823,-0.3823,-0.3813,-0.3758,-0.3717,-0.371,-0.3698,-0.3708,-0.3691,-0.3673,-0.3673,-0.3591,-0.3608,-0.3598,-0.3575,-0.3493,-0.349,-0.3488,-0.3481,-0.3476,-0.3472,0,0,0,0,0,0,-0.3852,-0.3818,-0.3818,-0.3773,-0.3748,-0.3717,-0.3694,-0.3693,-0.3664,-0.3666,-0.3651,-0.3643,-0.36,-0.3583,-0.3603,-0.3529,-0.3543,-0.3538,-0.3542,-0.3537,-0.3533,-0.3538,-0.361,0,0,0,0,0,-0.3845,-0.3816,-0.3788,-0.3751,-0.3739,-0.3719,-0.37,-0.3693,-0.3667,-0.3656,-0.3635,-0.3608,-0.3576,-0.3555,-0.3525,-0.3477,-0.3469,-0.3456,-0.3452,-0.3449,-0.3445,-0.3418,-0.3412,-0.3476,-0.3476,-0.3476,0,0,-0.3832,-0.381,-0.3792,-0.3749,-0.3729,-0.3699,-0.371,-0.3677,-0.3654,-0.365,-0.3608,-0.3592,-0.3561,-0.3515,-0.3494,-0.35,-0.3426,-0.3446,-0.3444,-0.3441,-0.3415,-0.3409,-0.3403,-0.3474,-0.3475,-0.3475,0,0,-0.3792,-0.3772,-0.3739,-0.3719,-0.3689,-0.3676,-0.3668,-0.3637,-0.3627,-0.3584,-0.3581,-0.3553,-0.3499,-0.3477,-0.3459,-0.3411,-0.3409,-0.3401,-0.3381,-0.3355,-0.335,-0.3346,-0.3329,-0.3323,-0.3397,-0.3397,-0.3397,0,-0.3778,-0.3733,-0.3722,-0.3689,-0.367,-0.3667,-0.3633,-0.3614,-0.3575,-0.3561,-0.3569,-0.3501,-0.348,-0.3429,-0.3417,-0.3403,-0.3393,-0.3405,-0.3352,-0.3348,-0.3343,-0.3327,-0.332,-0.3396,-0.3396,-0.3396,-0.3396,0,-0.3718,-0.3687,-0.3663,-0.3627,-0.3605,-0.3572,-0.3555,-0.3534,-0.3529,-0.3515,-0.3472,-0.3446,-0.3411,-0.3398,-0.3392,-0.3346,-0.3351,-0.3356,-0.3369,-0.3336,-0.3321,-0.3314,-0.3395,-0.3395,-0.3395,-0.3395,0,0,-0.3673,-0.3631,-0.3623,-0.3607,-0.3573,-0.3548,-0.3515,-0.3481,-0.3463,-0.3436,-0.3407,-0.3361,-0.3366,-0.3345,-0.3337,-0.3314,-0.3278,-0.3321,-0.332,-0.3314,-0.3225,-0.3222,-0.3215,-0.3277,-0.3275,-0.3274,-0.3228,0,-0.3629,-0.357,-0.356,-0.3508,-0.3479,-0.3475,-0.3446,-0.3422,-0.3408,-0.338,-0.3364,-0.3332,-0.334,-0.3328,-0.3305,-0.3287,-0.3259,-0.329,-0.3249,-0.3248,-0.3257,-0.3206,-0.3203,-0.316,-0.3221,-0.322,-0.322,0,-0.357,-0.3543,-0.3489,-0.346,-0.3447,-0.3421,-0.3389,-0.3363,-0.3336,-0.3327,-0.3304,-0.3298,-0.3262,-0.3278,-0.3228,-0.3249,-0.3231,-0.322,-0.3218,-0.3214,-0.3232,-0.3201,-0.3146,-0.314,-0.321,-0.3211,-0.3211,0,-0.3543,-0.3493,-0.3454,-0.344,-0.3405,-0.3387,-0.3371,-0.3345,-0.3325,-0.3297,-0.3284,-0.3251,-0.3233,-0.3208,-0.3193,-0.3206,-0.3144,-0.3159,-0.3135,-0.3136,-0.3123,-0.3124,-0.3064,-0.3111,-0.3111,-0.3111,-0.3111,0,-0.3495,-0.3462,-0.3441,-0.3418,-0.338,-0.3368,-0.3331,-0.3315,-0.3292,-0.3264,-0.3259,-0.3233,-0.3215,-0.3186,-0.3174,-0.3135,-0.3126,-0.3118,-0.3115,-0.3118,-0.312,-0.3107,-0.3109,-0.311,-0.311,-0.311,-0.3111,0,-0.3458,-0.3443,-0.3401,-0.3371,-0.3363,-0.3337,-0.3312,-0.3288,-0.3274,-0.3239,-0.323,-0.3208,-0.3174,-0.3157,-0.3114,-0.3106,-0.3061,-0.306,-0.3071,-0.307,-0.3047,-0.305,-0.2978,-0.2968,-0.3021,-0.3021,-0.302,0,-0.3429,-0.3404,-0.3372,-0.3354,-0.3338,-0.3309,-0.3289,-0.3275,-0.3255,-0.3222,-0.3202,-0.3168,-0.314,-0.3085,-0.3065,-0.3032,-0.303,-0.3007,-0.3025,-0.3029,-0.303,-0.3031,-0.3029,-0.3004,-0.3003,-0.3003,-0.3003,0,-0.3379,-0.3373,-0.3345,-0.3315,-0.3292,-0.3267,-0.3242,-0.3227,-0.3209,-0.3186,-0.3152,-0.313,-0.3087,-0.3053,-0.3019,-0.3002,-0.2999,-0.2997,-0.299,-0.2993,-0.3001,-0.2997,-0.3062,-0.2999,-0.2999,-0.3,-0.3,-0.3,-0.3345,-0.3323,-0.3297,-0.3266,-0.3247,-0.3224,-0.32,-0.3184,-0.3155,-0.312,-0.3113,-0.3077,-0.3049,-0.3003,-0.2985,-0.2956,-0.2961,-0.295,-0.2948,-0.2946,-0.2945,-0.3005,-0.2949,-0.295,-0.295,-0.295,-0.295,0,-0.3295,-0.3278,-0.325,-0.3217,-0.3192,-0.3193,-0.3165,-0.3145,-0.3113,-0.3089,-0.3062,-0.3022,-0.2989,-0.2966,-0.2932,-0.2913,-0.2911,-0.2905,-0.2906,-0.2902,-0.2942,-0.2952,-0.2907,-0.2907,-0.2907,-0.2907,-0.2907,-0.2907,-0.3266,-0.3228,-0.3219,-0.3171,-0.3154,-0.3119,-0.3104,-0.3082,-0.3063,-0.3019,-0.2992,-0.2978,-0.2954,-0.2918,-0.2888,-0.2882,-0.287,-0.2864,-0.2857,-0.2895,-0.29,-0.2904,-0.2913,-0.2861,-0.2861,-0.282,-0.282,-0.282]},{"header":{"parameterUnit":"m.s-1","parameterCategory":1,"la1":30.2991,"la2":30.254,"lo1":-89.0895,"lo2":-89.0444,"dy":0.0017,"dx":0.0017,"nx":28,"ny":28,"refTime":"2023-10-12T03:00:00:Z","depth":0,"parameterNumber":3,"parameterNumberName":"V-component_of_WINDS"},"data":[0,0,0,0,0,0,0,0,0,0,0,0,0,0,0,0,0,0,0,0,0,0,0,0,0,0,0,0,0,0,0,0,0,0,0,0,0,0,0,0,0,0,0,0,0,0,0,0,0,0,0,0,0,0,0,0,0,0,0.5706,0.5705,0,0.5561,0.556,0.5558,0.5447,0.5446,0.5445,0.5444,0.5293,0.529,0.5287,0,0,0,0,0,0,0,0,0,0,0,0,0,0.5883,0.5881,0.5706,0.5705,0.5703,0.5562,0.556,0.5558,0.5447,0.5446,0.5445,0.5443,0.5294,0.529,0.5286,0,0,0,0,0,0,0,0,0,0,0,0,0,0.5779,0.588,0.5707,0.5631,0.5622,0.5562,0.556,0.5557,0.5447,0.5446,0.5444,0.5443,0.5295,0.529,0.5286,0.5289,0,0,0.5272,0.527,0,0,0,0,0,0,0,0,0.5785,0.5773,0.5644,0.5636,0.5626,0.5521,0.5567,0.5467,0.5448,0.5514,0.5444,0.5442,0.537,0.5359,0.5335,0.5282,0.5275,0.5272,0.5269,0.5267,0.5265,0,0,0,0,0,0,0,0.5793,0.5779,0.5649,0.5642,0.5631,0.5602,0.5586,0.5547,0.5452,0.5508,0.5499,0.5484,0.5365,0.534,0.5331,0.5273,0.5272,0.5268,0.5265,0.5263,0.5211,0.5212,0,0,0,0,0,0,0.5812,0.5785,0.5653,0.5645,0.5704,0.5601,0.5582,0.5556,0.5452,0.5435,0.5485,0.5479,0.5348,0.5336,0.5325,0.5318,0.5267,0.5263,0.526,0.521,0.5211,0.5213,0,0,0,0,0,0,0.5817,0.5802,0.5659,0.5713,0.5692,0.5599,0.5571,0.5554,0.5529,0.5435,0.5417,0.5478,0.5347,0.5331,0.5298,0.5312,0.526,0.5256,0.5208,0.521,0.5212,0.5308,0,0,0,0,0,0,0.5822,0.5804,0.5805,0.5714,0.569,0.5636,0.5572,0.5552,0.5522,0.5512,0.5423,0.5407,0.5344,0.5305,0.5293,0.5305,0.5253,0.5206,0.5209,0.5211,0.5303,0.5313,0.5322,0,0,0,0,0,0.5829,0.5838,0.5806,0.579,0.569,0.5638,0.5624,0.5552,0.5524,0.5523,0.5462,0.541,0.5313,0.5303,0.5288,0.5299,0.5205,0.5208,0.5211,0.5299,0.5311,0.5321,0,0,0,0,0,0,0.5933,0.5825,0.5788,0.5768,0.5713,0.5619,0.5616,0.5568,0.5519,0.5512,0.5425,0.5405,0.5381,0.5336,0.5327,0.5294,0.5252,0.5252,0.5324,0.5334,0.5344,0.5354,0.5249,0,0,0,0,0,0.5954,0.5922,0.5828,0.582,0.5794,0.571,0.5685,0.5634,0.5573,0.5549,0.5486,0.5429,0.5384,0.5357,0.5312,0.5297,0.5274,0.5296,0.5306,0.5314,0.5314,0.53,0.5308,0.5223,0.5223,0.5223,0,0,0.5996,0.5933,0.5918,0.5839,0.579,0.5757,0.5691,0.566,0.5634,0.5544,0.5508,0.546,0.5389,0.5365,0.535,0.5327,0.5333,0.5318,0.5325,0.5321,0.5304,0.5312,0.5319,0.5225,0.5224,0.5224,0,0,0.6056,0.6006,0.5992,0.5945,0.5872,0.5816,0.5813,0.5726,0.569,0.5653,0.5585,0.5552,0.5479,0.543,0.5396,0.5436,0.5385,0.5424,0.5471,0.5458,0.5465,0.547,0.5482,0.5487,0.5425,0.5426,0.5426,0,0.6117,0.6066,0.5991,0.5962,0.5928,0.5847,0.583,0.5788,0.5704,0.5682,0.5657,0.5562,0.5509,0.547,0.5479,0.5456,0.5447,0.5433,0.547,0.5475,0.5479,0.5489,0.5494,0.5431,0.543,0.5429,0.5429,0,0.6143,0.6109,0.6106,0.6027,0.5993,0.5971,0.5891,0.5865,0.5818,0.5764,0.5726,0.5659,0.5597,0.5585,0.5538,0.5538,0.5526,0.5487,0.5442,0.5493,0.5501,0.5504,0.5438,0.5436,0.5434,0.5433,0,0,0.6264,0.6143,0.6143,0.6105,0.6019,0.5989,0.5963,0.5903,0.5882,0.5827,0.58,0.574,0.5703,0.5664,0.5611,0.56,0.5632,0.5562,0.5559,0.5575,0.5625,0.5653,0.5659,0.5599,0.5599,0.56,0.563,0,0.6308,0.6257,0.6187,0.6159,0.6124,0.6045,0.6022,0.5965,0.5914,0.5876,0.5819,0.5776,0.5732,0.5708,0.5694,0.5632,0.5641,0.5629,0.5571,0.557,0.5589,0.5663,0.5693,0.5725,0.5633,0.5634,0.5634,0,0.6352,0.6301,0.6269,0.6183,0.6166,0.6146,0.6084,0.605,0.5983,0.5947,0.5903,0.5846,0.5812,0.5774,0.5724,0.5717,0.5689,0.5655,0.5655,0.5645,0.5604,0.5653,0.5734,0.5738,0.5638,0.5638,0.5638,0,0.644,0.6363,0.6333,0.6303,0.6203,0.6191,0.6148,0.608,0.6048,0.5994,0.5972,0.5915,0.5883,0.5839,0.5767,0.5746,0.5724,0.568,0.569,0.5692,0.5687,0.5688,0.5762,0.5674,0.5674,0.5674,0.5674,0,0.6495,0.6477,0.6371,0.6352,0.6329,0.625,0.6229,0.6179,0.6119,0.6088,0.6017,0.5989,0.5897,0.5857,0.5801,0.5766,0.5753,0.5721,0.5705,0.5726,0.573,0.5705,0.57,0.5675,0.5675,0.5674,0.5674,0,0.6588,0.6516,0.6478,0.6386,0.6362,0.635,0.627,0.6248,0.6193,0.6154,0.614,0.6053,0.6003,0.5927,0.5854,0.5816,0.579,0.5766,0.5812,0.5803,0.5815,0.5814,0.5874,0.5877,0.5791,0.5792,0.5792,0,0.6626,0.6611,0.6517,0.6492,0.6452,0.6412,0.6378,0.6299,0.6267,0.6189,0.6175,0.612,0.6071,0.5994,0.5923,0.5866,0.5839,0.5864,0.583,0.585,0.5836,0.5836,0.5833,0.5871,0.5873,0.5874,0.5875,0,0.6701,0.6666,0.6621,0.6563,0.6525,0.6476,0.6423,0.6406,0.6314,0.6282,0.623,0.6192,0.6117,0.6062,0.5995,0.5949,0.5896,0.5886,0.5885,0.5904,0.593,0.5913,0.5831,0.5885,0.5884,0.5883,0.5882,0.5882,0.6765,0.6747,0.6678,0.663,0.6582,0.6533,0.6507,0.6449,0.6404,0.6337,0.6293,0.6243,0.6174,0.6079,0.6036,0.5994,0.5972,0.5971,0.597,0.597,0.5976,0.5939,0.5982,0.5982,0.5982,0.5981,0.5981,0,0.6834,0.6785,0.6742,0.667,0.6631,0.6586,0.6525,0.6495,0.6452,0.6393,0.6346,0.6285,0.6231,0.6156,0.6095,0.6076,0.605,0.6063,0.6062,0.6052,0.6001,0.6007,0.6085,0.6085,0.6085,0.6085,0.6085,0.6085,0.6865,0.683,0.6787,0.6728,0.6679,0.6629,0.6598,0.6552,0.6504,0.644,0.6395,0.6346,0.628,0.6214,0.6161,0.614,0.612,0.614,0.6111,0.6065,0.6055,0.6046,0.6051,0.6137,0.6137,0.6164,0.6164,0.6164]}]]